EN

Hourly Weather Dzierzaniny

Today, 31 October, Saturday

Time Temperature Precipitation Wind Pressure Humidity
00:00 +8°C° 1.8 mm 1 mps 725 mmHg 95%
01:00 +7°C° 0 mm 0 mps 724 mmHg 98%
02:00 +9°C° 0.6 mm 1 mps 725 mmHg 97%
03:00 +9°C° 0.6 mm 1 mps 725 mmHg 97%
04:00 +8°C° 0.6 mm 2 mps 725 mmHg 97%
05:00 +7°C° 0 mm 2 mps 725 mmHg 96%
06:00 +7°C° 0 mm 2 mps 726 mmHg 96%
07:00 +5°C° 0 mm 3 mps 727 mmHg 93%
08:00 +7°C° 0 mm 2 mps 728 mmHg 88%
09:00 +7°C° 0 mm 2 mps 728 mmHg 83%
10:00 +9°C° 0 mm 1 mps 729 mmHg 78%
11:00 +9°C° 0 mm 1 mps 729 mmHg 75%
12:00 +10°C° 0 mm 1 mps 729 mmHg 71%
13:00 +10°C° 0 mm 1 mps 729 mmHg 68%
14:00 +9°C° 0 mm 1 mps 729 mmHg 71%
15:00 +9°C° 0 mm 1 mps 729 mmHg 74%
16:00 +8°C° 0 mm 1 mps 729 mmHg 77%
17:00 +7°C° 0 mm 1 mps 729 mmHg 79%
18:00 +6°C° 0 mm 0 mps 730 mmHg 81%
19:00 +5°C° 0 mm 0 mps 730 mmHg 83%
20:00 +5°C° 0 mm 0 mps 730 mmHg 84%
21:00 +6°C° 0 mm 1 mps 730 mmHg 85%
22:00 +6°C° 0 mm 1 mps 730 mmHg 85%
23:00 +5°C° 0 mm 1 mps 730 mmHg 86%

Tomorrow, 1 November, Sunday

Time Temperature Precipitation Wind Pressure Humidity
00:00 +5°C° 0 mm 1 mps 730 mmHg 86%
01:00 +5°C° 0 mm 1 mps 730 mmHg 87%
02:00 +4°C° 0 mm 1 mps 730 mmHg 87%
03:00 +4°C° 0 mm 1 mps 729 mmHg 87%
04:00 +4°C° 0 mm 1 mps 729 mmHg 87%
05:00 +4°C° 0 mm 1 mps 729 mmHg 86%
06:00 +4°C° 0 mm 1 mps 729 mmHg 84%
07:00 +4°C° 0 mm 1 mps 729 mmHg 83%
08:00 +5°C° 0 mm 1 mps 729 mmHg 76%
09:00 +7°C° 0 mm 1 mps 729 mmHg 68%
10:00 +9°C° 0 mm 1 mps 729 mmHg 60%
11:00 +10°C° 0 mm 1 mps 728 mmHg 57%
12:00 +12°C° 0 mm 1 mps 728 mmHg 53%
13:00 +13°C° 0 mm 1 mps 728 mmHg 50%
14:00 +12°C° 0 mm 1 mps 727 mmHg 55%
15:00 +11°C° 0 mm 1 mps 727 mmHg 61%
16:00 +10°C° 0 mm 1 mps 726 mmHg 66%
17:00 +8°C° 0 mm 2 mps 726 mmHg 70%
18:00 +8°C° 0 mm 2 mps 726 mmHg 73%
19:00 +7°C° 0 mm 2 mps 726 mmHg 77%
20:00 +7°C° 0 mm 2 mps 726 mmHg 79%
21:00 +7°C° 0 mm 2 mps 726 mmHg 81%
22:00 +7°C° 0 mm 2 mps 725 mmHg 82%
23:00 +7°C° 0.3 mm 2 mps 725 mmHg 85%

Day after tomorrow, 2 November, Monday

Time Temperature Precipitation Wind Pressure Humidity
00:00 +8°C° 0.3 mm 2 mps 725 mmHg 88%
01:00 +8°C° 0.3 mm 2 mps 725 mmHg 91%
02:00 +8°C° 0.4 mm 2 mps 725 mmHg 91%
03:00 +8°C° 0.4 mm 2 mps 724 mmHg 91%
04:00 +8°C° 0.4 mm 2 mps 724 mmHg 92%
05:00 +8°C° 0.3 mm 2 mps 724 mmHg 92%
06:00 +8°C° 0.3 mm 2 mps 725 mmHg 93%
07:00 +9°C° 0.3 mm 2 mps 725 mmHg 93%
08:00 +10°C° 0 mm 2 mps 725 mmHg 91%
09:00 +12°C° 0 mm 2 mps 725 mmHg 89%
10:00 +13°C° 0 mm 2 mps 725 mmHg 87%
11:00 +12°C° 0.1 mm 2 mps 726 mmHg 88%
12:00 +12°C° 0.1 mm 2 mps 726 mmHg 89%
13:00 +12°C° 0.1 mm 2 mps 726 mmHg 91%
14:00 +12°C° 0 mm 1 mps 726 mmHg 91%
15:00 +12°C° 0 mm 1 mps 726 mmHg 91%
16:00 +12°C° 0 mm 1 mps 726 mmHg 92%
17:00 +12°C° 0.2 mm 1 mps 726 mmHg 92%
18:00 +12°C° 0.2 mm 2 mps 726 mmHg 93%
19:00 +12°C° 0.2 mm 2 mps 726 mmHg 93%
20:00 +12°C° 0.3 mm 2 mps 726 mmHg 94%
21:00 +12°C° 0.3 mm 2 mps 727 mmHg 94%
22:00 +12°C° 0.3 mm 2 mps 727 mmHg 94%
23:00 +12°C° 0 mm 1 mps 727 mmHg 94%

3 November, Tuesday

Time Temperature Precipitation Wind Pressure Humidity
00:00 +12°C° 0 mm 1 mps 727 mmHg 93%
01:00 +12°C° 0 mm 1 mps 727 mmHg 93%
02:00 +12°C° 0 mm 1 mps 727 mmHg 93%
03:00 +12°C° 0 mm 1 mps 727 mmHg 92%
04:00 +12°C° 0 mm 1 mps 727 mmHg 92%
05:00 +12°C° 0.1 mm 1 mps 727 mmHg 93%
06:00 +12°C° 0.1 mm 1 mps 728 mmHg 93%
07:00 +12°C° 0.1 mm 1 mps 728 mmHg 93%
08:00 +13°C° 0 mm 1 mps 728 mmHg 91%
09:00 +14°C° 0 mm 1 mps 728 mmHg 89%
10:00 +15°C° 0 mm 1 mps 729 mmHg 86%
11:00 +16°C° 0 mm 2 mps 729 mmHg 84%
12:00 +16°C° 0 mm 2 mps 729 mmHg 81%
13:00 +17°C° 0 mm 3 mps 729 mmHg 79%
14:00 +16°C° 0.1 mm 3 mps 729 mmHg 83%
15:00 +16°C° 0.1 mm 3 mps 729 mmHg 87%
16:00 +14°C° 0.1 mm 3 mps 729 mmHg 92%
17:00 +13°C° 0.1 mm 3 mps 730 mmHg 91%
18:00 +12°C° 0.1 mm 3 mps 730 mmHg 90%
19:00 +12°C° 0.1 mm 3 mps 730 mmHg 89%
20:00 +12°C° 0 mm 2 mps 731 mmHg 88%
21:00 +12°C° 0 mm 2 mps 731 mmHg 87%
22:00 +10°C° 0 mm 2 mps 731 mmHg 87%
23:00 +10°C° 0 mm 2 mps 731 mmHg 87%

4 November, Wednesday

Time Temperature Precipitation Wind Pressure Humidity
00:00 +10°C° 0 mm 2 mps 731 mmHg 87%
01:00 +10°C° 0 mm 2 mps 732 mmHg 87%
02:00 +9°C° 0.1 mm 2 mps 732 mmHg 87%
03:00 +9°C° 0.1 mm 2 mps 732 mmHg 87%
04:00 +10°C° 0.1 mm 1 mps 732 mmHg 87%
05:00 +9°C° 0.1 mm 1 mps 732 mmHg 88%
06:00 +8°C° 0.1 mm 2 mps 733 mmHg 89%
07:00 +8°C° 0.1 mm 2 mps 733 mmHg 90%
08:00 +8°C° 0.4 mm 2 mps 733 mmHg 91%
09:00 +9°C° 0.4 mm 1 mps 733 mmHg 91%
10:00 +8°C° 0.4 mm 1 mps 734 mmHg 92%
11:00 +8°C° 0.3 mm 1 mps 734 mmHg 92%
12:00 +8°C° 0.3 mm 1 mps 734 mmHg 93%
13:00 +8°C° 0.3 mm 1 mps 734 mmHg 93%
14:00 +8°C° 0.3 mm 1 mps 734 mmHg 93%
15:00 +8°C° 0.3 mm 1 mps 734 mmHg 93%
16:00 +8°C° 0.3 mm 1 mps 734 mmHg 93%
17:00 +8°C° 0.3 mm 1 mps 734 mmHg 93%
18:00 +8°C° 0.3 mm 1 mps 734 mmHg 93%
19:00 +8°C° 0.3 mm 1 mps 735 mmHg 93%
20:00 +8°C° 0.1 mm 1 mps 735 mmHg 93%
21:00 +8°C° 0.1 mm 1 mps 735 mmHg 93%
22:00 +8°C° 0.1 mm 1 mps 735 mmHg 93%
23:00 +7°C° 0.1 mm 1 mps 735 mmHg 93%

5 November, Thursday

Time Temperature Precipitation Wind Pressure Humidity
00:00 +7°C° 0.1 mm 1 mps 735 mmHg 93%
01:00 +7°C° 0.1 mm 1 mps 735 mmHg 92%
02:00 +7°C° 0.3 mm 1 mps 735 mmHg 93%
03:00 +7°C° 0.3 mm 1 mps 735 mmHg 94%
04:00 +7°C° 0.3 mm 1 mps 735 mmHg 94%
05:00 +7°C° 0.4 mm 1 mps 735 mmHg 94%
06:00 +6°C° 0.4 mm 2 mps 736 mmHg 95%
07:00 +6°C° 0.4 mm 2 mps 736 mmHg 95%
08:00 +6°C° 0.2 mm 2 mps 736 mmHg 94%
09:00 +6°C° 0.2 mm 2 mps 736 mmHg 94%
10:00 +6°C° 0.2 mm 2 mps 736 mmHg 93%
11:00 +6°C° 0.2 mm 2 mps 737 mmHg 92%
12:00 +7°C° 0.2 mm 2 mps 737 mmHg 90%
13:00 +7°C° 0.2 mm 2 mps 737 mmHg 88%
14:00 +7°C° 0.1 mm 2 mps 737 mmHg 88%
15:00 +7°C° 0.1 mm 2 mps 737 mmHg 88%
16:00 +8°C° 0.1 mm 1 mps 737 mmHg 88%
17:00 +7°C° 0 mm 1 mps 737 mmHg 89%
18:00 +6°C° 0 mm 1 mps 737 mmHg 90%
19:00 +4°C° 0 mm 2 mps 738 mmHg 91%
20:00 +5°C° 0 mm 1 mps 738 mmHg 91%
21:00 +5°C° 0 mm 1 mps 738 mmHg 91%
22:00 +4°C° 0 mm 1 mps 738 mmHg 91%
23:00 +4°C° 0 mm 1 mps 738 mmHg 92%
Show more